KJ4FOP-1 Weather Reports


time (UTC)temp
C
wind
direction
speed
KPH
gust
KPH
rain 1hr
cm
rain 24hr
cm
rain mn
cm
humidity
%
barometer
mb
20260510164835 25 147 0.0 3.2 0.00 0.00 0.00 62 1015.7
20260510164735 25 147 0.0 3.2 0.00 0.00 0.00 61 1015.6
20260510164634 25 148 0.0 3.2 0.00 0.00 0.00 63 1015.7
20260510164535 25 198 0.0 3.2 0.00 0.00 0.00 67 1015.7
20260510164434 25 206 0.0 3.2 0.00 0.00 0.00 67 1015.7
20260510164334 25 206 0.0 3.2 0.00 0.00 0.00 68 1015.7
20260510164234 25 206 0.0 3.2 0.00 0.00 0.00 65 1015.7
20260510164135 25 207 0.0 3.2 0.00 0.00 0.00 66 1015.6
20260510164035 25 207 0.0 3.2 0.00 0.00 0.00 67 1015.6
20260510163935 25 207 0.0 3.2 0.00 0.00 0.00 67 1015.6
20260510163834 25 209 0.0 3.2 0.00 0.00 0.00 65 1015.7
20260510163734 25 209 0.0 3.2 0.00 0.00 0.00 65 1015.7
20260510163634 25 214 0.0 3.2 0.00 0.00 0.00 63 1015.7
20260510163535 25 231 0.0 1.6 0.00 0.00 0.00 63 1015.7
20260510163434 25 242 0.0 1.6 0.00 0.00 0.00 63 1015.7
20260510163334 25 251 0.0 1.6 0.00 0.00 0.00 63 1015.7
20260510163234 25 251 0.0 1.6 0.00 0.00 0.00 65 1015.7
20260510163135 25 252 0.0 1.6 0.00 0.00 0.00 65 1015.7
20260510163034 25 252 0.0 1.6 0.00 0.00 0.00 63 1015.7
20260510162935 25 252 0.0 1.6 0.00 0.00 0.00 64 1015.7
20260510162835 25 260 0.0 1.6 0.00 0.00 0.00 63 1015.7
20260510162734 25 266 0.0 3.2 0.00 0.00 0.00 66 1015.7
20260510162634 25 264 0.0 3.2 0.00 0.00 0.00 65 1015.6
20260510162535 25 266 0.0 3.2 0.00 0.00 0.00 64 1015.7
20260510162434 25 267 0.0 3.2 0.00 0.00 0.00 64 1015.7
20260510162334 25 266 0.0 3.2 0.00 0.00 0.00 63 1015.7
20260510162235 25 256 0.0 3.2 0.00 0.00 0.00 63 1015.6
20260510162134 25 250 0.0 3.2 0.00 0.00 0.00 63 1015.6
20260510162035 25 248 0.0 3.2 0.00 0.00 0.00 62 1015.6
20260510161535 25 138 0.0 1.6 0.00 0.00 0.00 67 1015.6
20260510161135 25 141 0.0 3.2 0.00 0.00 0.00 69 1015.7
20260510161035 25 151 0.0 3.2 0.00 0.00 0.00 68 1015.7
20260510160934 24 152 0.0 3.2 0.00 0.00 0.00 65 1015.7
20260510160134 23 160 0.0 3.2 0.00 0.00 0.00 67 1015.6
20260510154135 22 0 0.0 0.0 0.00 0.00 0.00 78 1015.6
20260510154034 22 0 0.0 0.0 0.00 0.00 0.00 78 1015.6
20260510153934 22 0 0.0 0.0 0.00 0.00 0.00 78 1015.7
20260510153835 22 0 0.0 0.0 0.00 0.00 0.00 79 1015.6
20260510153734 22 0 0.0 0.0 0.00 0.00 0.00 77 1015.6
20260510153634 22 0 0.0 0.0 0.00 0.00 0.00 78 1015.7
20260510153535 22 0 0.0 0.0 0.00 0.00 0.00 79 1015.7
20260510153434 22 0 0.0 0.0 0.00 0.00 0.00 79 1015.7
20260510153334 22 0 0.0 0.0 0.00 0.00 0.00 78 1015.7
20260510153234 22 0 0.0 0.0 0.00 0.00 0.00 78 1015.7
20260510153134 22 0 0.0 0.0 0.00 0.00 0.00 78 1015.7
20260510153035 22 0 0.0 0.0 0.00 0.00 0.00 78 1015.6
20260510152934 22 0 0.0 0.0 0.00 0.00 0.00 79 1015.6
20260510152834 22 0 0.0 0.0 0.00 0.00 0.00 79 1015.7
20260510152734 22 0 0.0 0.0 0.00 0.00 0.00 79 1015.7
20260510152635 22 0 0.0 0.0 0.00 0.00 0.00 79 1015.6
20260510152534 22 0 0.0 0.0 0.00 0.00 0.00 79 1015.7
20260510152435 22 0 0.0 0.0 0.00 0.00 0.00 78 1015.7
20260510152334 22 0 0.0 0.0 0.00 0.00 0.00 79 1015.7
20260510152234 22 0 0.0 0.0 0.00 0.00 0.00 80 1015.7
20260510152134 22 0 0.0 0.0 0.00 0.00 0.00 79 1015.7
20260510152035 22 0 0.0 0.0 0.00 0.00 0.00 80 1015.7
20260510151934 22 0 0.0 0.0 0.00 0.00 0.00 81 1015.7
20260510151834 22 0 0.0 0.0 0.00 0.00 0.00 81 1015.7
20260510151734 21 0 0.0 0.0 0.00 0.00 0.00 82 1015.6
20260510151534 21 0 0.0 0.0 0.00 0.00 0.00 82 1015.7
20260510151435 21 0 0.0 0.0 0.00 0.00 0.00 81 1015.7
20260510151334 21 0 0.0 0.0 0.00 0.00 0.00 80 1015.7
20260510151234 21 0 0.0 0.0 0.00 0.00 0.00 81 1015.7
20260510151134 21 0 0.0 0.0 0.00 0.00 0.00 81 1015.6
20260510151035 21 0 0.0 0.0 0.00 0.00 0.00 81 1015.6
20260510150934 21 0 0.0 0.0 0.00 0.00 0.00 81 1015.6
20260510150834 21 0 0.0 0.0 0.00 0.00 0.00 82 1015.6
20260510150734 21 0 0.0 0.0 0.00 0.00 0.00 81 1015.6
20260510150634 21 0 0.0 0.0 0.00 0.00 0.00 82 1015.6
20260510150535 21 0 0.0 0.0 0.00 0.00 0.00 83 1015.5
20260510150434 21 0 0.0 0.0 0.00 0.00 0.00 82 1015.6
20260510150035 21 0 0.0 0.0 0.00 0.00 0.00 82 1015.5
20260510145934 21 303 0.0 1.6 0.00 0.00 0.00 82 1015.4
20260510145834 21 303 0.0 1.6 0.00 0.00 0.00 82 1015.4
20260510145734 21 303 0.0 1.6 0.00 0.00 0.00 82 1015.4
20260510143434 20 303 0.0 1.6 0.00 0.00 0.00 82 1015.0
20260510142435 20 0 0.0 0.0 0.00 0.00 0.00 83 1015.1
20260510142334 20 0 0.0 0.0 0.00 0.00 0.00 84 1015.1
20260510142234 20 0 0.0 0.0 0.00 0.00 0.00 84 1015.1
20260510142134 20 0 0.0 0.0 0.00 0.00 0.00 84 1015.1
20260510142035 20 0 0.0 0.0 0.00 0.00 0.00 84 1015.0
20260510141934 19 0 0.0 0.0 0.00 0.00 0.00 84 1015.0
20260510141834 19 0 0.0 0.0 0.00 0.00 0.00 83 1015.0
20260510141734 19 0 0.0 0.0 0.00 0.00 0.00 84 1015.0
20260510141634 19 0 0.0 0.0 0.00 0.00 0.00 83 1015.0
20260510141535 19 0 0.0 0.0 0.00 0.00 0.00 83 1015.0
20260510141434 19 303 0.0 1.6 0.00 0.00 0.00 84 1015.0
20260510141335 19 303 0.0 1.6 0.00 0.00 0.00 84 1015.0
20260510141234 19 303 0.0 1.6 0.00 0.00 0.00 84 1015.0
20260510141134 19 303 0.0 1.6 0.00 0.00 0.00 84 1015.0
20260510141035 19 303 0.0 1.6 0.00 0.00 0.00 84 1015.0
20260510140934 18 303 0.0 1.6 0.00 0.00 0.00 83 1015.0
20260510140834 18 303 0.0 1.6 0.00 0.00 0.00 83 1015.0
20260510140735 18 303 0.0 1.6 0.00 0.00 0.00 85 1015.0
20260510140634 18 303 0.0 1.6 0.00 0.00 0.00 86 1015.0
20260510140535 18 303 0.0 1.6 0.00 0.00 0.00 86 1015.0
20260510140434 18 0 0.0 0.0 0.00 0.00 0.00 86 1015.0
20260510140234 18 303 0.0 1.6 0.00 0.00 0.00 86 1014.9
20260510140134 18 303 0.0 1.6 0.00 0.00 0.00 87 1014.9
20260510140035 18 303 0.0 1.6 0.00 0.00 0.00 87 1015.0
20260510135934 18 303 0.0 1.6 0.00 0.00 0.00 87 1014.9
20260510135834 18 303 0.0 1.6 0.00 0.00 0.00 87 1015.0
20260510135734 18 303 0.0 1.6 0.00 0.00 0.00 86 1015.0
20260510135635 18 303 0.0 1.6 0.00 0.00 0.00 86 1014.9
20260510135534 18 303 0.0 1.6 0.00 0.00 0.00 86 1014.9
20260510135434 18 303 0.0 1.6 0.00 0.00 0.00 86 1014.9
20260510135334 18 303 0.0 1.6 0.00 0.00 0.00 87 1014.9
20260510135234 18 0 0.0 0.0 0.00 0.00 0.00 87 1014.9
20260510135134 18 0 0.0 0.0 0.00 0.00 0.00 86 1014.9
20260510135035 18 0 0.0 0.0 0.00 0.00 0.00 87 1014.9
20260510134934 18 0 0.0 0.0 0.00 0.00 0.00 87 1014.8
20260510134634 18 0 0.0 0.0 0.00 0.00 0.00 87 1014.8
20260510134534 17 0 0.0 0.0 0.00 0.00 0.00 87 1014.9
20260510134434 17 0 0.0 0.0 0.00 0.00 0.00 87 1014.9
20260510134334 17 0 0.0 0.0 0.00 0.00 0.00 87 1014.8
20260510134234 17 0 0.0 0.0 0.00 0.00 0.00 87 1014.8
20260510133734 17 0 0.0 0.0 0.00 0.00 0.00 89 1014.8
20260510133534 17 0 0.0 0.0 0.00 0.00 0.00 89 1014.8
20260510133334 17 0 0.0 0.0 0.00 0.00 0.00 89 1014.8
20260510133134 17 0 0.0 0.0 0.00 0.00 0.00 89 1014.8
20260510132734 17 0 0.0 0.0 0.00 0.00 0.00 89 1014.7
20260510132334 17 0 0.0 0.0 0.00 0.00 0.00 90 1014.7
20260510132234 17 0 0.0 0.0 0.00 0.00 0.00 90 1014.7
20260510132035 16 0 0.0 0.0 0.00 0.00 0.00 90 1014.7
20260510131634 16 0 0.0 0.0 0.00 0.00 0.00 89 1014.7
20260510131535 16 0 0.0 0.0 0.00 0.00 0.00 89 1014.7
20260510131334 16 0 0.0 0.0 0.00 0.00 0.00 89 1014.8
20260510131135 16 0 0.0 0.0 0.00 0.00 0.00 90 1014.9
20260510131034 16 0 0.0 0.0 0.00 0.00 0.00 90 1014.9
20260510130935 16 0 0.0 0.0 0.00 0.00 0.00 90 1014.9
20260510130834 16 0 0.0 0.0 0.00 0.00 0.00 90 1015.0
20260510130734 16 0 0.0 0.0 0.00 0.00 0.00 91 1015.0
20260510130634 16 0 0.0 0.0 0.00 0.00 0.00 91 1015.0
20260510130535 16 0 0.0 0.0 0.00 0.00 0.00 91 1015.0
20260510130434 16 0 0.0 0.0 0.00 0.00 0.00 91 1015.0
20260510130335 16 0 0.0 0.0 0.00 0.00 0.00 91 1015.0
20260510130234 16 0 0.0 0.0 0.00 0.00 0.00 91 1015.0
20260510130134 16 0 0.0 0.0 0.00 0.00 0.00 91 1015.0
20260510130035 16 0 0.0 0.0 0.00 0.00 0.00 91 1015.0
20260510125934 16 0 0.0 0.0 0.00 0.00 0.00 91 1014.9
20260510125834 16 0 0.0 0.0 0.00 0.00 0.00 90 1014.9
20260510125734 15 0 0.0 0.0 0.00 0.00 0.00 90 1014.9
20260510125634 15 0 0.0 0.0 0.00 0.00 0.00 90 1014.9
20260510125535 15 0 0.0 0.0 0.00 0.00 0.00 90 1014.8
20260510125434 15 0 0.0 0.0 0.00 0.00 0.00 90 1014.8
20260510125334 15 0 0.0 0.0 0.00 0.00 0.00 90 1014.8
20260510125234 15 0 0.0 0.0 0.00 0.00 0.00 90 1014.7
20260510125134 15 0 0.0 0.0 0.00 0.00 0.00 90 1014.7
20260510125035 15 0 0.0 0.0 0.00 0.00 0.00 90 1014.6
20260510124934 15 0 0.0 0.0 0.00 0.00 0.00 90 1014.6
20260510124835 15 0 0.0 0.0 0.00 0.00 0.00 90 1014.5
20260510124734 15 0 0.0 0.0 0.00 0.00 0.00 90 1014.5
20260510124634 15 0 0.0 0.0 0.00 0.00 0.00 90 1014.5
20260510124535 15 0 0.0 0.0 0.00 0.00 0.00 90 1014.5
20260510124434 15 0 0.0 0.0 0.00 0.00 0.00 90 1014.5
20260510124334 15 0 0.0 0.0 0.00 0.00 0.00 90 1014.5
20260510124234 15 0 0.0 0.0 0.00 0.00 0.00 91 1014.5
20260510124135 15 0 0.0 0.0 0.00 0.00 0.00 91 1014.5
20260510124034 15 0 0.0 0.0 0.00 0.00 0.00 91 1014.5
20260510123934 15 0 0.0 0.0 0.00 0.00 0.00 91 1014.4
20260510123834 15 0 0.0 0.0 0.00 0.00 0.00 91 1014.4
20260510123734 15 0 0.0 0.0 0.00 0.00 0.00 91 1014.5
20260510123634 15 0 0.0 0.0 0.00 0.00 0.00 92 1014.4
20260510123135 15 0 0.0 0.0 0.00 0.00 0.00 92 1014.4
20260510121634 14 0 0.0 0.0 0.00 0.00 0.00 92 1014.4
20260510121434 14 0 0.0 0.0 0.00 0.00 0.00 92 1014.4
20260510121034 14 0 0.0 0.0 0.00 0.00 0.00 92 1014.2
20260510120134 13 0 0.0 0.0 0.00 0.00 0.00 92 1014.2
20260510120035 13 0 0.0 0.0 0.00 0.00 0.00 92 1014.3
20260510115834 13 0 0.0 0.0 0.00 0.00 0.00 92 1014.3
20260510115634 13 0 0.0 0.0 0.00 0.00 0.00 92 1014.3
20260510115534 13 0 0.0 0.0 0.00 0.00 0.00 92 1014.3
20260510115434 13 0 0.0 0.0 0.00 0.00 0.00 92 1014.3
20260510115334 13 0 0.0 0.0 0.00 0.00 0.00 92 1014.4
20260510115234 13 0 0.0 0.0 0.00 0.00 0.00 92 1014.4
20260510115134 13 0 0.0 0.0 0.00 0.00 0.00 92 1014.4
20260510115034 13 0 0.0 0.0 0.00 0.00 0.00 92 1014.5
20260510114934 13 0 0.0 0.0 0.00 0.00 0.00 92 1014.5
20260510114834 13 0 0.0 0.0 0.00 0.00 0.00 92 1014.5
20260510114734 13 0 0.0 0.0 0.00 0.00 0.00 92 1014.5
20260510114634 13 0 0.0 0.0 0.00 0.00 0.00 92 1014.6
20260510114535 13 0 0.0 0.0 0.00 0.00 0.00 92 1014.6
20260510114434 13 0 0.0 0.0 0.00 0.00 0.00 92 1014.6
20260510114334 13 0 0.0 0.0 0.00 0.00 0.00 92 1014.5
20260510114234 13 0 0.0 0.0 0.00 0.00 0.00 92 1014.5
20260510114135 13 0 0.0 0.0 0.00 0.00 0.00 92 1014.5
20260510114034 13 0 0.0 0.0 0.00 0.00 0.00 92 1014.5
20260510113934 13 0 0.0 0.0 0.00 0.00 0.00 92 1014.4
20260510113834 13 0 0.0 0.0 0.00 0.00 0.00 92 1014.4
20260510113734 13 0 0.0 0.0 0.00 0.00 0.00 92 1014.4
20260510113634 13 0 0.0 0.0 0.00 0.00 0.00 92 1014.4
20260510113535 13 0 0.0 0.0 0.00 0.00 0.00 92 1014.3
20260510113434 13 0 0.0 0.0 0.00 0.00 0.00 92 1014.2
20260510113334 13 0 0.0 0.0 0.00 0.00 0.00 92 1014.2
20260510113234 13 0 0.0 0.0 0.00 0.00 0.00 92 1014.2
20260510113134 13 0 0.0 0.0 0.00 0.00 0.00 92 1014.1
20260510113034 13 0 0.0 0.0 0.00 0.00 0.00 92 1014.2
20260510112934 13 0 0.0 0.0 0.00 0.00 0.00 92 1014.1
20260510112834 13 0 0.0 0.0 0.00 0.00 0.00 92 1014.1
20260510112734 13 0 0.0 0.0 0.00 0.00 0.00 92 1014.1
20260510112634 13 0 0.0 0.0 0.00 0.00 0.00 92 1014.0
20260510112535 13 0 0.0 0.0 0.00 0.00 0.00 91 1014.0
20260510112434 13 0 0.0 0.0 0.00 0.00 0.00 91 1014.0
20260510112334 13 0 0.0 0.0 0.00 0.00 0.00 91 1014.0
20260510112234 13 0 0.0 0.0 0.00 0.00 0.00 91 1014.0
20260510112134 13 0 0.0 0.0 0.00 0.00 0.00 91 1013.9
20260510112035 13 0 0.0 0.0 0.00 0.00 0.00 91 1013.9
20260510111534 13 0 0.0 0.0 0.00 0.00 0.00 91 1013.7
20260510111434 13 0 0.0 0.0 0.00 0.00 0.00 91 1013.7
20260510111334 13 0 0.0 0.0 0.00 0.00 0.00 91 1013.7
20260510111134 13 0 0.0 0.0 0.00 0.00 0.00 91 1013.7
20260510111035 13 0 0.0 0.0 0.00 0.00 0.00 91 1013.7
20260510110934 12 0 0.0 0.0 0.00 0.00 0.00 91 1013.7
20260510110834 12 0 0.0 0.0 0.00 0.00 0.00 91 1013.7
20260510110734 12 0 0.0 0.0 0.00 0.00 0.00 91 1013.7
20260510110635 12 0 0.0 0.0 0.00 0.00 0.00 91 1013.7
20260510110534 12 0 0.0 0.0 0.00 0.00 0.00 91 1013.7
20260510110434 12 0 0.0 0.0 0.00 0.00 0.00 91 1013.7
20260510110234 12 0 0.0 0.0 0.00 0.00 0.00 91 1013.7
20260510105535 12 0 0.0 0.0 0.00 0.00 0.00 91 1013.5
20260510105434 12 0 0.0 0.0 0.00 0.00 0.00 91 1013.5
20260510105334 12 0 0.0 0.0 0.00 0.00 0.00 91 1013.4
20260510105135 12 0 0.0 0.0 0.00 0.00 0.00 91 1013.4
20260510104435 12 0 0.0 0.0 0.00 0.00 0.00 91 1013.2
20260510104334 12 0 0.0 0.0 0.00 0.00 0.00 91 1013.2
20260510104234 12 0 0.0 0.0 0.00 0.00 0.00 91 1013.2
20260510104134 12 0 0.0 0.0 0.00 0.00 0.00 91 1013.2
20260510104035 12 0 0.0 0.0 0.00 0.00 0.00 91 1013.2
20260510103934 12 0 0.0 0.0 0.00 0.00 0.00 91 1013.1
20260510103834 12 0 0.0 0.0 0.00 0.00 0.00 91 1013.1
20260510103735 12 0 0.0 0.0 0.00 0.00 0.00 91 1013.1
20260510103634 12 0 0.0 0.0 0.00 0.00 0.00 91 1013.0
20260510103534 12 0 0.0 0.0 0.00 0.00 0.00 91 1013.0
20260510103434 12 0 0.0 0.0 0.00 0.00 0.00 91 1013.0
20260510103334 12 0 0.0 0.0 0.00 0.00 0.00 91 1013.0
20260510103234 12 0 0.0 0.0 0.00 0.00 0.00 91 1013.0
20260510103134 12 0 0.0 0.0 0.00 0.00 0.00 91 1013.0
20260510103035 12 0 0.0 0.0 0.00 0.00 0.00 91 1013.0
20260510102934 12 0 0.0 0.0 0.00 0.00 0.00 91 1013.0
20260510102834 12 0 0.0 0.0 0.00 0.00 0.00 91 1012.9
20260510102734 12 0 0.0 0.0 0.00 0.00 0.00 91 1012.9
20260510102634 12 0 0.0 0.0 0.00 0.00 0.00 91 1012.9
20260510102534 12 0 0.0 0.0 0.00 0.00 0.00 91 1012.9
20260510102434 12 0 0.0 0.0 0.00 0.00 0.00 91 1012.9
20260510102334 12 0 0.0 0.0 0.00 0.00 0.00 91 1012.8
20260510102234 12 0 0.0 0.0 0.00 0.00 0.00 91 1012.9
20260510102134 12 0 0.0 0.0 0.00 0.00 0.00 90 1012.8
20260510102035 12 0 0.0 0.0 0.00 0.00 0.00 91 1012.8
20260510101934 12 0 0.0 0.0 0.00 0.00 0.00 90 1012.8
20260510101834 12 0 0.0 0.0 0.00 0.00 0.00 90 1012.8
20260510101734 12 0 0.0 0.0 0.00 0.00 0.00 90 1012.9
20260510101634 12 0 0.0 0.0 0.00 0.00 0.00 90 1012.9
20260510101535 12 0 0.0 0.0 0.00 0.00 0.00 90 1012.9
20260510101434 12 0 0.0 0.0 0.00 0.00 0.00 90 1012.9
20260510101334 12 0 0.0 0.0 0.00 0.00 0.00 90 1012.9
20260510101235 12 0 0.0 0.0 0.00 0.00 0.00 90 1012.8
20260510101134 12 0 0.0 0.0 0.00 0.00 0.00 90 1012.8
20260510101034 12 0 0.0 0.0 0.00 0.00 0.00 90 1012.8
20260510100734 12 0 0.0 0.0 0.00 0.00 0.00 90 1012.8
20260510100634 12 0 0.0 0.0 0.00 0.00 0.00 90 1012.8
20260510100535 12 0 0.0 0.0 0.00 0.00 0.00 90 1012.8
20260510100434 12 0 0.0 0.0 0.00 0.00 0.00 90 1012.8
20260510100234 12 0 0.0 0.0 0.00 0.00 0.00 90 1012.8
20260510095734 12 0 0.0 0.0 0.00 0.00 0.00 90 1012.8
20260510092534 12 0 0.0 0.0 0.00 0.00 0.00 90 1012.6
20260510092434 12 0 0.0 0.0 0.00 0.00 0.00 90 1012.6
20260510092334 12 0 0.0 0.0 0.00 0.00 0.00 90 1012.6
20260510092234 12 0 0.0 0.0 0.00 0.00 0.00 90 1012.6
20260510092035 12 0 0.0 0.0 0.00 0.00 0.00 89 1012.5
20260510091934 12 0 0.0 0.0 0.00 0.00 0.00 89 1012.5
20260510091834 12 0 0.0 0.0 0.00 0.00 0.00 89 1012.5
20260510091734 12 0 0.0 0.0 0.00 0.00 0.00 90 1012.5
20260510091634 12 0 0.0 0.0 0.00 0.00 0.00 90 1012.5
20260510091534 13 0 0.0 0.0 0.00 0.00 0.00 90 1012.5
20260510091434 13 0 0.0 0.0 0.00 0.00 0.00 90 1012.5
20260510091334 12 0 0.0 0.0 0.00 0.00 0.00 89 1012.5
20260510091234 13 0 0.0 0.0 0.00 0.00 0.00 89 1012.5
20260510091134 13 0 0.0 0.0 0.00 0.00 0.00 89 1012.6
20260510091035 13 0 0.0 0.0 0.00 0.00 0.00 89 1012.6
20260510090934 13 0 0.0 0.0 0.00 0.00 0.00 89 1012.6
20260510090834 13 0 0.0 0.0 0.00 0.00 0.00 89 1012.6
20260510090735 13 0 0.0 0.0 0.00 0.00 0.00 89 1012.6
20260510090634 13 0 0.0 0.0 0.00 0.00 0.00 89 1012.6
20260510090535 13 0 0.0 0.0 0.00 0.00 0.00 89 1012.6
20260510090434 13 0 0.0 0.0 0.00 0.00 0.00 89 1012.6
20260510090334 13 0 0.0 0.0 0.00 0.00 0.00 89 1012.5
20260510090234 13 0 0.0 0.0 0.00 0.00 0.00 89 1012.5
20260510090134 13 0 0.0 0.0 0.00 0.00 0.00 89 1012.5
20260510090034 13 0 0.0 0.0 0.00 0.00 0.00 89 1012.4
20260510085934 13 0 0.0 0.0 0.00 0.00 0.00 89 1012.4
20260510085834 13 0 0.0 0.0 0.00 0.00 0.00 89 1012.4
20260510085734 13 0 0.0 0.0 0.00 0.00 0.00 89 1012.4
20260510085634 13 0 0.0 0.0 0.00 0.00 0.00 89 1012.4
20260510085535 13 0 0.0 0.0 0.00 0.00 0.00 89 1012.4
20260510085434 13 0 0.0 0.0 0.00 0.00 0.00 89 1012.4
20260510085334 13 0 0.0 0.0 0.00 0.00 0.00 89 1012.4
20260510085234 13 0 0.0 0.0 0.00 0.00 0.00 89 1012.4
20260510085134 13 0 0.0 0.0 0.00 0.00 0.00 89 1012.4
20260510085034 13 0 0.0 0.0 0.00 0.00 0.00 89 1012.4
20260510084934 13 0 0.0 0.0 0.00 0.00 0.00 89 1012.2
20260510084834 13 0 0.0 0.0 0.00 0.00 0.00 89 1012.2
20260510084734 13 0 0.0 0.0 0.00 0.00 0.00 89 1012.2
20260510084634 13 0 0.0 0.0 0.00 0.00 0.00 89 1012.2
20260510084535 13 0 0.0 0.0 0.00 0.00 0.00 89 1012.1
20260510084334 13 0 0.0 0.0 0.00 0.00 0.00 89 1012.1
20260510084134 13 0 0.0 0.0 0.00 0.00 0.00 89 1012.1
20260510083834 13 0 0.0 0.0 0.00 0.00 0.00 89 1012.0
20260510083634 13 0 0.0 0.0 0.00 0.00 0.00 89 1011.8
20260510083534 13 0 0.0 0.0 0.00 0.00 0.00 89 1011.8
20260510083434 13 0 0.0 0.0 0.00 0.00 0.00 89 1011.8
20260510083334 13 0 0.0 0.0 0.00 0.00 0.00 89 1011.8
20260510083134 13 0 0.0 0.0 0.00 0.00 0.00 89 1011.9
20260510080234 13 0 0.0 0.0 0.00 0.00 0.00 89 1011.8
20260510080134 13 0 0.0 0.0 0.00 0.00 0.00 89 1011.8
20260510080035 13 0 0.0 0.0 0.00 0.00 0.00 89 1011.9
20260510075934 13 0 0.0 0.0 0.00 0.00 0.00 89 1011.9
20260510075834 13 0 0.0 0.0 0.00 0.00 0.00 89 1011.9
20260510075734 13 0 0.0 0.0 0.00 0.00 0.00 89 1011.9
20260510075634 13 0 0.0 0.0 0.00 0.00 0.00 89 1011.9
20260510075534 13 0 0.0 0.0 0.00 0.00 0.00 89 1011.8
20260510075433 13 0 0.0 0.0 0.00 0.00 0.00 89 1011.8
20260510075334 13 0 0.0 0.0 0.00 0.00 0.00 89 1011.8
20260510075234 13 0 0.0 0.0 0.00 0.00 0.00 89 1011.8
20260510075134 13 0 0.0 0.0 0.00 0.00 0.00 89 1011.8
20260510075035 13 0 0.0 0.0 0.00 0.00 0.00 89 1011.7
20260510074934 13 0 0.0 0.0 0.00 0.00 0.00 89 1011.7
20260510074834 13 0 0.0 0.0 0.00 0.00 0.00 89 1011.7
20260510074734 13 0 0.0 0.0 0.00 0.00 0.00 89 1011.7
20260510074634 13 0 0.0 0.0 0.00 0.00 0.00 89 1011.7
20260510074534 13 0 0.0 0.0 0.00 0.00 0.00 88 1011.7
20260510074434 13 0 0.0 0.0 0.00 0.00 0.00 88 1011.7
20260510074334 13 0 0.0 0.0 0.00 0.00 0.00 88 1011.7
20260510074234 13 0 0.0 0.0 0.00 0.00 0.00 88 1011.7
20260510074134 13 0 0.0 0.0 0.00 0.00 0.00 88 1011.7
20260510074035 13 0 0.0 0.0 0.00 0.00 0.00 88 1011.7
20260510073934 13 0 0.0 0.0 0.00 0.00 0.00 88 1011.7
20260510073834 13 0 0.0 0.0 0.00 0.00 0.00 88 1011.7
20260510073734 13 0 0.0 0.0 0.00 0.00 0.00 88 1011.7
20260510073634 13 0 0.0 0.0 0.00 0.00 0.00 88 1011.7
20260510073534 13 0 0.0 0.0 0.00 0.00 0.00 88 1011.7
20260510073434 13 0 0.0 0.0 0.00 0.00 0.00 88 1011.7
20260510073334 13 0 0.0 0.0 0.00 0.00 0.00 88 1011.7
20260510073234 13 0 0.0 0.0 0.00 0.00 0.00 88 1011.7
20260510073134 13 0 0.0 0.0 0.00 0.00 0.00 88 1011.7
20260510073035 13 0 0.0 0.0 0.00 0.00 0.00 88 1011.7
20260510072934 13 0 0.0 0.0 0.00 0.00 0.00 88 1011.7
20260510072834 13 0 0.0 0.0 0.00 0.00 0.00 88 1011.8
20260510072734 13 0 0.0 0.0 0.00 0.00 0.00 88 1011.8
20260510072634 13 0 0.0 0.0 0.00 0.00 0.00 88 1011.7
20260510072534 13 0 0.0 0.0 0.00 0.00 0.00 88 1011.7
20260510072434 13 0 0.0 0.0 0.00 0.00 0.00 88 1011.7
20260510072234 13 0 0.0 0.0 0.00 0.00 0.00 88 1011.7
20260510072134 13 0 0.0 0.0 0.00 0.00 0.00 88 1011.8
20260510071934 13 0 0.0 0.0 0.00 0.00 0.00 88 1011.8
20260510071834 13 0 0.0 0.0 0.00 0.00 0.00 88 1011.7
20260510071734 13 0 0.0 0.0 0.00 0.00 0.00 88 1011.7
20260510071634 13 0 0.0 0.0 0.00 0.00 0.00 88 1011.8
20260510071434 13 0 0.0 0.0 0.00 0.00 0.00 88 1011.8
20260510071234 13 0 0.0 0.0 0.00 0.00 0.00 87 1011.8
20260510070034 13 0 0.0 0.0 0.00 0.00 0.00 87 1011.9
20260510065234 13 0 0.0 0.0 0.00 0.00 0.00 87 1011.9
20260510064834 13 0 0.0 0.0 0.00 0.00 0.00 87 1011.9
20260510064734 13 0 0.0 0.0 0.00 0.00 0.00 87 1011.9
20260510064634 13 0 0.0 0.0 0.00 0.00 0.00 87 1011.9
20260510064534 13 0 0.0 0.0 0.00 0.00 0.00 87 1012.0
20260510064334 13 0 0.0 0.0 0.00 0.00 0.00 87 1012.0
20260510064134 13 0 0.0 0.0 0.00 0.00 0.00 87 1012.1
20260510064035 13 0 0.0 0.0 0.00 0.00 0.00 87 1012.0
20260510063934 13 0 0.0 0.0 0.00 0.00 0.00 87 1012.1
20260510063834 13 0 0.0 0.0 0.00 0.00 0.00 87 1012.1
20260510063734 13 0 0.0 0.0 0.00 0.00 0.00 87 1012.1
20260510063634 13 0 0.0 0.0 0.00 0.00 0.00 87 1012.1
20260510063534 13 0 0.0 0.0 0.00 0.00 0.00 87 1012.1
20260510063434 13 0 0.0 0.0 0.00 0.00 0.00 87 1012.1
20260510063334 13 0 0.0 0.0 0.00 0.00 0.00 87 1012.1
20260510063234 13 0 0.0 0.0 0.00 0.00 0.00 87 1012.2
20260510063134 13 0 0.0 0.0 0.00 0.00 0.00 87 1012.2
20260510063034 13 0 0.0 0.0 0.00 0.00 0.00 87 1012.2
20260510062934 13 0 0.0 0.0 0.00 0.00 0.00 87 1012.2
20260510062834 13 0 0.0 0.0 0.00 0.00 0.00 87 1012.2
20260510062734 13 0 0.0 0.0 0.00 0.00 0.00 87 1012.2
20260510062634 13 0 0.0 0.0 0.00 0.00 0.00 87 1012.2
20260510062535 13 0 0.0 0.0 0.00 0.00 0.00 87 1012.2
20260510062434 13 0 0.0 0.0 0.00 0.00 0.00 87 1012.2
20260510062334 13 0 0.0 0.0 0.00 0.00 0.00 86 1012.2
20260510062233 13 0 0.0 0.0 0.00 0.00 0.00 86 1012.2
20260510062134 13 0 0.0 0.0 0.00 0.00 0.00 86 1012.2
20260510062034 13 0 0.0 0.0 0.00 0.00 0.00 86 1012.2
20260510061933 13 0 0.0 0.0 0.00 0.00 0.00 86 1012.2
20260510061834 13 0 0.0 0.0 0.00 0.00 0.00 86 1012.1
20260510061734 13 0 0.0 0.0 0.00 0.00 0.00 86 1012.2
20260510061634 13 0 0.0 0.0 0.00 0.00 0.00 86 1012.2
20260510061535 13 0 0.0 0.0 0.00 0.00 0.00 86 1012.2
20260510061434 13 0 0.0 0.0 0.00 0.00 0.00 86 1012.2
20260510061334 13 0 0.0 0.0 0.00 0.00 0.00 86 1012.2
20260510061234 14 0 0.0 0.0 0.00 0.00 0.00 86 1012.3
20260510061134 14 0 0.0 0.0 0.00 0.00 0.00 86 1012.3
20260510061034 14 0 0.0 0.0 0.00 0.00 0.00 86 1012.3
20260510060934 14 0 0.0 0.0 0.00 0.00 0.00 86 1012.3
20260510055734 14 0 0.0 0.0 0.00 0.00 0.00 85 1012.0
20260510055534 14 0 0.0 0.0 0.00 0.00 0.00 86 1012.1
20260510054634 14 0 0.0 0.0 0.00 0.00 0.00 85 1012.1
20260510053734 14 0 0.0 0.0 0.00 0.00 0.00 85 1012.0
20260510053634 14 0 0.0 0.0 0.00 0.00 0.00 84 1012.0
20260510053534 14 0 0.0 0.0 0.00 0.00 0.00 84 1012.0
20260510053434 14 0 0.0 0.0 0.00 0.00 0.00 84 1012.0
20260510053333 14 0 0.0 0.0 0.00 0.00 0.00 84 1012.0
20260510053234 14 0 0.0 0.0 0.00 0.00 0.00 84 1012.0
20260510053134 14 0 0.0 0.0 0.00 0.00 0.00 84 1012.0
20260510053034 14 0 0.0 0.0 0.00 0.00 0.00 84 1012.0
20260510052934 14 0 0.0 0.0 0.00 0.00 0.00 84 1012.0
20260510052834 14 0 0.0 0.0 0.00 0.00 0.00 84 1012.0
20260510052734 14 0 0.0 0.0 0.00 0.00 0.00 84 1012.0
20260510052634 14 0 0.0 0.0 0.00 0.00 0.00 84 1011.9
20260510052535 14 0 0.0 0.0 0.00 0.00 0.00 84 1011.9
20260510052434 14 0 0.0 0.0 0.00 0.00 0.00 84 1011.8
20260510052334 14 0 0.0 0.0 0.00 0.00 0.00 84 1011.8
20260510052234 14 0 0.0 0.0 0.00 0.00 0.00 84 1011.8
20260510052134 15 0 0.0 0.0 0.00 0.00 0.00 84 1011.8
20260510052034 14 0 0.0 0.0 0.00 0.00 0.00 84 1011.8
20260510051933 15 0 0.0 0.0 0.00 0.00 0.00 84 1011.8
20260510051835 15 0 0.0 0.0 0.00 0.00 0.00 84 1011.8
20260510051734 15 0 0.0 0.0 0.00 0.00 0.00 84 1011.8
20260510051634 15 0 0.0 0.0 0.00 0.00 0.00 84 1011.8
20260510051535 15 0 0.0 0.0 0.00 0.00 0.00 84 1011.8
20260510051434 15 0 0.0 0.0 0.00 0.00 0.00 83 1011.8
20260510051334 15 0 0.0 0.0 0.00 0.00 0.00 83 1011.8
20260510051234 15 0 0.0 0.0 0.00 0.00 0.00 83 1011.8
20260510051134 15 0 0.0 0.0 0.00 0.00 0.00 83 1011.8
20260510051034 15 0 0.0 0.0 0.00 0.00 0.00 83 1011.8
20260510050934 15 0 0.0 0.0 0.00 0.00 0.00 83 1011.7
20260510050834 15 0 0.0 0.0 0.00 0.00 0.00 83 1011.7
20260510050734 15 0 0.0 0.0 0.00 0.00 0.00 83 1011.7
20260510050634 15 0 0.0 0.0 0.00 0.00 0.00 83 1011.7
20260510050535 15 0 0.0 0.0 0.00 0.00 0.00 83 1011.7
20260510050434 15 0 0.0 0.0 0.00 0.00 0.00 83 1011.7
20260510050334 15 0 0.0 0.0 0.00 0.00 0.00 83 1011.7
20260510050234 15 0 0.0 0.0 0.00 0.00 0.00 83 1011.7
20260510050134 15 0 0.0 0.0 0.00 0.00 0.00 83 1011.7
20260510050036 15 0 0.0 0.0 0.00 0.00 0.00 83 1011.6
20260510045934 15 0 0.0 0.0 0.00 0.00 0.00 83 1011.6
20260510045534 15 0 0.0 0.0 0.00 0.00 0.00 83 1011.6
20260510045335 15 0 0.0 0.0 0.00 0.00 0.00 83 1011.6
20260510045034 15 0 0.0 0.0 0.00 0.00 0.00 82 1011.5
20260510044934 15 0 0.0 0.0 0.00 0.00 0.00 82 1011.6
20260510044734 15 0 0.0 0.0 0.00 0.00 0.00 82 1011.5
20260510044634 15 0 0.0 0.0 0.00 0.00 0.00 82 1011.5
20260510044434 15 0 0.0 0.0 0.00 0.00 0.00 82 1011.5
20260510043134 15 0 0.0 0.0 0.00 0.00 0.00 82 1011.4
20260510042934 15 0 0.0 0.0 0.00 0.00 0.00 82 1011.4
20260510042334 15 0 0.0 0.0 0.00 0.00 0.00 80 1011.4
20260510042233 15 0 0.0 0.0 0.00 0.00 0.00 81 1011.4
20260510042134 15 0 0.0 0.0 0.00 0.00 0.00 81 1011.4
20260510042034 15 0 0.0 0.0 0.00 0.00 0.00 81 1011.3
20260510041933 15 0 0.0 0.0 0.00 0.00 0.00 81 1011.4
20260510041834 15 0 0.0 0.0 0.00 0.00 0.00 81 1011.4
20260510041734 15 0 0.0 0.0 0.00 0.00 0.00 81 1011.4
20260510041634 15 0 0.0 0.0 0.00 0.00 0.00 81 1011.4
20260510041535 15 0 0.0 0.0 0.00 0.00 0.00 81 1011.4
20260510041434 15 0 0.0 0.0 0.00 0.00 0.00 81 1011.5
20260510041334 15 0 0.0 0.0 0.00 0.00 0.00 81 1011.4
20260510041233 15 0 0.0 0.0 0.00 0.00 0.00 81 1011.4
20260510041134 15 0 0.0 0.0 0.00 0.00 0.00 81 1011.5
20260510041034 15 0 0.0 0.0 0.00 0.00 0.00 80 1011.5
20260510040933 15 0 0.0 0.0 0.00 0.00 0.00 80 1011.4
20260510040834 15 0 0.0 0.0 0.00 0.00 0.00 81 1011.5
20260510040734 15 0 0.0 0.0 0.00 0.00 0.00 80 1011.4
20260510040634 15 0 0.0 0.0 0.00 0.00 0.00 81 1011.4
20260510040535 15 0 0.0 0.0 0.00 0.00 0.00 81 1011.5
20260510040434 15 0 0.0 0.0 0.00 0.00 0.00 81 1011.4
20260510040334 15 0 0.0 0.0 0.00 0.00 0.00 81 1011.5
20260510040234 15 0 0.0 0.0 0.00 0.00 0.00 81 1011.5
20260510040133 15 0 0.0 0.0 0.00 0.00 0.00 81 1011.5
20260510040034 15 0 0.0 0.0 0.00 0.00 0.00 81 1011.5
20260510035934 15 0 0.0 0.0 0.00 0.00 0.00 81 1011.5
20260510035833 15 0 0.0 0.0 0.00 0.00 0.00 81 1011.5
20260510035734 15 0 0.0 0.0 0.00 0.00 0.00 81 1011.4
20260510035634 15 0 0.0 0.0 0.00 0.00 0.00 81 1011.4
20260510035535 15 0 0.0 0.0 0.00 0.00 0.00 81 1011.5
20260510035434 15 0 0.0 0.0 0.00 0.00 0.00 81 1011.5
20260510035334 15 0 0.0 0.0 0.00 0.00 0.00 80 1011.4
20260510035234 15 0 0.0 0.0 0.00 0.00 0.00 81 1011.4
20260510035133 15 0 0.0 0.0 0.00 0.00 0.00 81 1011.4
20260510035034 15 0 0.0 0.0 0.00 0.00 0.00 81 1011.4
20260510034934 15 0 0.0 0.0 0.00 0.00 0.00 81 1011.4
20260510034833 15 0 0.0 0.0 0.00 0.00 0.00 81 1011.4
20260510034734 15 0 0.0 0.0 0.00 0.00 0.00 81 1011.4
20260510034534 15 0 0.0 0.0 0.00 0.00 0.00 81 1011.4
20260510034035 15 0 0.0 0.0 0.00 0.00 0.00 81 1011.4
20260510033934 15 0 0.0 0.0 0.00 0.00 0.00 81 1011.3
20260510032934 15 0 0.0 0.0 0.00 0.00 0.00 80 1011.4
20260510032833 15 0 0.0 0.0 0.00 0.00 0.00 80 1011.4
20260510032734 15 0 0.0 0.0 0.00 0.00 0.00 80 1011.4
20260510032534 15 0 0.0 0.0 0.00 0.00 0.00 80 1011.4
20260510032334 15 0 0.0 0.0 0.00 0.00 0.00 80 1011.4
20260510032134 16 0 0.0 0.0 0.00 0.00 0.00 80 1011.3
20260510031733 16 0 0.0 0.0 0.00 0.00 0.00 80 1011.3
20260510031534 16 0 0.0 0.0 0.00 0.00 0.00 80 1011.3
20260510031234 16 0 0.0 0.0 0.00 0.00 0.00 80 1011.3
20260510031134 16 0 0.0 0.0 0.00 0.00 0.00 80 1011.4
20260510031035 16 0 0.0 0.0 0.00 0.00 0.00 80 1011.3
20260510030934 16 0 0.0 0.0 0.00 0.00 0.00 80 1011.4
20260510030233 16 0 0.0 0.0 0.00 0.00 0.00 79 1011.3
20260510030134 16 0 0.0 0.0 0.00 0.00 0.00 80 1011.2
20260510030034 16 0 0.0 0.0 0.00 0.00 0.00 79 1011.3
20260510025933 16 0 0.0 0.0 0.00 0.00 0.00 79 1011.2
20260510025834 16 0 0.0 0.0 0.00 0.00 0.00 80 1011.3
20260510025634 16 0 0.0 0.0 0.00 0.00 0.00 79 1011.2
20260510025535 16 0 0.0 0.0 0.00 0.00 0.00 79 1011.3
20260510025434 16 0 0.0 0.0 0.00 0.00 0.00 79 1011.2
20260510025334 16 0 0.0 0.0 0.00 0.00 0.00 79 1011.3
20260510025234 16 0 0.0 0.0 0.00 0.00 0.00 80 1011.3
20260510025133 16 0 0.0 0.0 0.00 0.00 0.00 80 1011.2
20260510025034 16 0 0.0 0.0 0.00 0.00 0.00 79 1011.2
20260510024934 16 0 0.0 0.0 0.00 0.00 0.00 79 1011.2
20260510024833 16 0 0.0 0.0 0.00 0.00 0.00 79 1011.2
20260510024734 16 0 0.0 0.0 0.00 0.00 0.00 79 1011.1
20260510024634 16 0 0.0 0.0 0.00 0.00 0.00 79 1011.2
20260510024534 16 0 0.0 0.0 0.00 0.00 0.00 79 1011.2
20260510024434 16 0 0.0 0.0 0.00 0.00 0.00 79 1011.2
20260510024334 16 0 0.0 0.0 0.00 0.00 0.00 79 1011.1
20260510024234 16 0 0.0 0.0 0.00 0.00 0.00 79 1011.1
20260510024134 16 0 0.0 0.0 0.00 0.00 0.00 79 1011.1
20260510021634 17 0 0.0 0.0 0.00 0.00 0.00 78 1010.7
20260510021434 17 0 0.0 0.0 0.00 0.00 0.00 78 1010.7
20260510020634 17 0 0.0 0.0 0.00 0.00 0.00 78 1010.6
20260510020534 17 0 0.0 0.0 0.00 0.00 0.00 78 1010.6
20260510020434 17 0 0.0 0.0 0.00 0.00 0.00 78 1010.6
20260510020334 17 0 0.0 0.0 0.00 0.00 0.00 78 1010.6
20260510020234 17 0 0.0 0.0 0.00 0.00 0.00 78 1010.6
20260510020134 17 0 0.0 0.0 0.00 0.00 0.00 78 1010.6
20260510020034 17 0 0.0 0.0 0.00 0.00 0.00 78 1010.6
20260510015934 17 0 0.0 0.0 0.00 0.00 0.00 78 1010.6
20260510015834 17 0 0.0 0.0 0.00 0.00 0.00 78 1010.6
20260510015733 17 0 0.0 0.0 0.00 0.00 0.00 78 1010.6
20260510015634 17 0 0.0 0.0 0.00 0.00 0.00 78 1010.6
20260510015534 17 0 0.0 0.0 0.00 0.00 0.00 77 1010.6
20260510015433 17 0 0.0 0.0 0.00 0.00 0.00 77 1010.6
20260510015234 17 0 0.0 0.0 0.00 0.00 0.00 77 1010.5
20260510015134 17 0 0.0 0.0 0.00 0.00 0.00 77 1010.5
20260510015035 17 0 0.0 0.0 0.00 0.00 0.00 77 1010.5
20260510014934 17 0 0.0 0.0 0.00 0.00 0.00 77 1010.5
20260510014834 17 0 0.0 0.0 0.00 0.00 0.00 77 1010.5
20260510014734 17 0 0.0 0.0 0.00 0.00 0.00 77 1010.5
20260510014633 17 0 0.0 0.0 0.00 0.00 0.00 76 1010.5
20260510014534 17 0 0.0 0.0 0.00 0.00 0.00 76 1010.4
20260510014434 17 0 0.0 0.0 0.00 0.00 0.00 76 1010.4
20260510014333 17 0 0.0 0.0 0.00 0.00 0.00 76 1010.5
20260510014234 17 0 0.0 0.0 0.00 0.00 0.00 76 1010.4
20260510014134 17 0 0.0 0.0 0.00 0.00 0.00 76 1010.4
20260510014034 17 0 0.0 0.0 0.00 0.00 0.00 76 1010.4
20260510013934 18 0 0.0 0.0 0.00 0.00 0.00 76 1010.4
20260510013834 18 0 0.0 0.0 0.00 0.00 0.00 76 1010.4
20260510013734 18 0 0.0 0.0 0.00 0.00 0.00 76 1010.4
20260510013634 18 0 0.0 0.0 0.00 0.00 0.00 76 1010.4
20260510013534 18 0 0.0 0.0 0.00 0.00 0.00 76 1010.3
20260510013434 18 0 0.0 0.0 0.00 0.00 0.00 76 1010.3
20260510013334 18 0 0.0 0.0 0.00 0.00 0.00 76 1010.3
20260510013233 18 0 0.0 0.0 0.00 0.00 0.00 76 1010.4
20260510013134 18 0 0.0 0.0 0.00 0.00 0.00 75 1010.3
20260510005434 20 0 0.0 0.0 0.00 0.00 0.00 69 1010.0
20260510005334 20 0 0.0 0.0 0.00 0.00 0.00 69 1010.0
20260510005234 20 0 0.0 0.0 0.00 0.00 0.00 69 1010.0
20260510005134 20 0 0.0 0.0 0.00 0.00 0.00 69 1009.9
20260510005034 20 0 0.0 0.0 0.00 0.00 0.00 69 1009.9
20260510004934 20 0 0.0 0.0 0.00 0.00 0.00 69 1009.9
20260510004834 20 0 0.0 0.0 0.00 0.00 0.00 69 1009.9
20260510004733 20 0 0.0 0.0 0.00 0.00 0.00 68 1009.9
20260510004634 20 0 0.0 0.0 0.00 0.00 0.00 68 1009.9
20260510004534 21 0 0.0 0.0 0.00 0.00 0.00 69 1009.9
20260510004433 21 0 0.0 0.0 0.00 0.00 0.00 68 1009.9
20260510004334 21 0 0.0 0.0 0.00 0.00 0.00 68 1009.9
20260510004234 21 0 0.0 0.0 0.00 0.00 0.00 68 1009.9
20260510004134 21 0 0.0 0.0 0.00 0.00 0.00 69 1009.9
20260510004035 21 0 0.0 0.0 0.00 0.00 0.00 69 1009.9
20260510003934 21 0 0.0 0.0 0.00 0.00 0.00 69 1009.8
20260510003834 21 0 0.0 0.0 0.00 0.00 0.00 69 1009.8
20260510003734 21 0 0.0 0.0 0.00 0.00 0.00 69 1009.8
20260510003633 21 0 0.0 0.0 0.00 0.00 0.00 68 1009.8
20260510003534 21 0 0.0 0.0 0.00 0.00 0.00 67 1009.8
20260510003434 21 0 0.0 0.0 0.00 0.00 0.00 67 1009.7
20260510003333 21 0 0.0 0.0 0.00 0.00 0.00 66 1009.7
20260510003233 21 0 0.0 0.0 0.00 0.00 0.00 66 1009.7
20260510003134 21 0 0.0 0.0 0.00 0.00 0.00 65 1009.6
20260510003034 21 0 0.0 0.0 0.00 0.00 0.00 65 1009.6
20260510002934 21 0 0.0 0.0 0.00 0.00 0.00 65 1009.6
20260510002834 21 0 0.0 0.0 0.00 0.00 0.00 65 1009.6
20260510002734 21 0 0.0 0.0 0.00 0.00 0.00 64 1009.5
20260510002634 21 0 0.0 0.0 0.00 0.00 0.00 64 1009.5
20260510002534 22 0 0.0 0.0 0.00 0.00 0.00 64 1009.5
20260510002434 22 0 0.0 0.0 0.00 0.00 0.00 63 1009.6
20260510002334 22 0 0.0 0.0 0.00 0.00 0.00 64 1009.5
20260510002233 22 0 0.0 0.0 0.00 0.00 0.00 63 1009.5
20260510002133 22 0 0.0 0.0 0.00 0.00 0.00 63 1009.5
20260509234534 23 0 0.0 0.0 0.00 0.00 0.00 55 1009.4
20260509234433 23 0 0.0 0.0 0.00 0.00 0.00 55 1009.4
20260509234334 23 0 0.0 0.0 0.00 0.00 0.00 54 1009.3
20260509234234 23 0 0.0 0.0 0.00 0.00 0.00 54 1009.3
20260509234134 23 0 0.0 0.0 0.00 0.00 0.00 54 1009.3
20260509234035 23 0 0.0 0.0 0.00 0.00 0.00 53 1009.4
20260509233934 23 0 0.0 0.0 0.00 0.00 0.00 54 1009.3
20260509233834 23 0 0.0 0.0 0.00 0.00 0.00 54 1009.3
20260509233734 23 0 0.0 0.0 0.00 0.00 0.00 53 1009.3
20260509233633 23 0 0.0 0.0 0.00 0.00 0.00 53 1009.2
20260509233534 24 0 0.0 0.0 0.00 0.00 0.00 52 1009.2
20260509233433 24 0 0.0 0.0 0.00 0.00 0.00 52 1009.2
20260509233333 24 0 0.0 0.0 0.00 0.00 0.00 52 1009.2
20260509233234 24 0 0.0 0.0 0.00 0.00 0.00 52 1009.2
20260509233134 24 0 0.0 0.0 0.00 0.00 0.00 53 1009.2
20260509233035 24 0 0.0 0.0 0.00 0.00 0.00 52 1009.2
20260509232934 24 0 0.0 0.0 0.00 0.00 0.00 52 1009.2
20260509232834 24 0 0.0 0.0 0.00 0.00 0.00 53 1009.2
20260509232734 24 0 0.0 0.0 0.00 0.00 0.00 52 1009.2
20260509232633 24 0 0.0 0.0 0.00 0.00 0.00 51 1009.2
20260509232534 24 0 0.0 0.0 0.00 0.00 0.00 53 1009.2
20260509232434 24 0 0.0 0.0 0.00 0.00 0.00 52 1009.2
20260509232333 24 0 0.0 0.0 0.00 0.00 0.00 51 1009.2
20260509232233 24 0 0.0 0.0 0.00 0.00 0.00 50 1009.2
20260509232134 25 0 0.0 0.0 0.00 0.00 0.00 50 1009.2
20260509232034 25 0 0.0 0.0 0.00 0.00 0.00 51 1009.2
20260509231933 25 0 0.0 0.0 0.00 0.00 0.00 49 1009.1
20260509231834 25 0 0.0 0.0 0.00 0.00 0.00 48 1009.1
20260509231734 25 0 0.0 0.0 0.00 0.00 0.00 48 1009.2
20260509231634 25 0 0.0 0.0 0.00 0.00 0.00 48 1009.1
20260509231535 25 0 0.0 0.0 0.00 0.00 0.00 48 1009.2
20260509231434 25 0 0.0 0.0 0.00 0.00 0.00 48 1009.2
20260509231334 25 0 0.0 0.0 0.00 0.00 0.00 48 1009.2
20260509231234 25 0 0.0 0.0 0.00 0.00 0.00 48 1009.2
20260509231133 25 0 0.0 0.0 0.00 0.00 0.00 50 1009.2
20260509231034 25 0 0.0 0.0 0.00 0.00 0.00 46 1009.2
20260509230934 25 0 0.0 0.0 0.00 0.00 0.00 49 1009.2
20260509230833 25 0 0.0 0.0 0.00 0.00 0.00 50 1009.1
20260509230734 25 0 0.0 0.0 0.00 0.00 0.00 49 1009.1
20260509223034 27 0 0.0 0.0 0.00 0.00 0.00 48 1009.0
20260509222933 27 0 0.0 0.0 0.00 0.00 0.00 48 1009.0
20260509222834 27 0 0.0 0.0 0.00 0.00 0.00 48 1009.0
20260509222734 27 0 0.0 0.0 0.00 0.00 0.00 46 1009.0
20260509222634 27 0 0.0 0.0 0.00 0.00 0.00 47 1008.9
20260509222535 27 303 0.0 1.6 0.00 0.00 0.00 45 1008.9
20260509222434 27 304 0.0 3.2 0.00 0.00 0.00 42 1009.0
20260509222334 27 304 0.0 3.2 0.00 0.00 0.00 39 1009.0
20260509222233 27 304 0.0 3.2 0.00 0.00 0.00 40 1008.9
20260509222133 27 304 0.0 3.2 0.00 0.00 0.00 36 1009.0
20260509222036 27 304 0.0 3.2 0.00 0.00 0.00 36 1008.9
20260509221933 27 304 0.0 3.2 0.00 0.00 0.00 36 1009.0
20260509221833 27 304 0.0 3.2 0.00 0.00 0.00 36 1009.0
20260509221734 27 304 0.0 3.2 0.00 0.00 0.00 38 1009.0
20260509221634 27 304 0.0 3.2 0.00 0.00 0.00 37 1009.0
20260509221535 28 304 0.0 3.2 0.00 0.00 0.00 35 1009.0
20260509221434 28 303 0.0 1.6 0.00 0.00 0.00 38 1009.0
20260509221334 28 0 0.0 0.0 0.00 0.00 0.00 40 1008.9
20260509221234 28 0 0.0 0.0 0.00 0.00 0.00 34 1009.0
20260509221133 28 0 0.0 0.0 0.00 0.00 0.00 36 1009.0
20260509221034 28 0 0.0 0.0 0.00 0.00 0.00 37 1009.0
20260509220934 28 0 0.0 0.0 0.00 0.00 0.00 38 1009.0
20260509220833 28 0 0.0 0.0 0.00 0.00 0.00 38 1009.0
20260509220733 28 0 0.0 0.0 0.00 0.00 0.00 40 1009.1
20260509220634 28 0 0.0 0.0 0.00 0.00 0.00 43 1009.1
20260509220534 28 0 0.0 0.0 0.00 0.00 0.00 39 1009.0
20260509220433 29 0 0.0 0.0 0.00 0.00 0.00 38 1009.0
20260509220334 29 0 0.0 0.0 0.00 0.00 0.00 36 1009.0
20260509220234 29 0 0.0 0.0 0.00 0.00 0.00 38 1009.0
20260509220134 29 0 0.0 0.0 0.00 0.00 0.00 39 1009.0
20260509220034 29 0 0.0 0.0 0.00 0.00 0.00 39 1009.0
20260509215934 29 303 0.0 1.6 0.00 0.00 0.00 34 1009.0
20260509215834 30 303 0.0 1.6 0.00 0.00 0.00 34 1009.0
20260509215733 30 303 0.0 1.6 0.00 0.00 0.00 38 1009.0
20260509215633 30 303 0.0 1.6 0.00 0.00 0.00 40 1009.0
20260509215534 30 304 0.0 1.6 0.00 0.00 0.00 37 1009.0
20260509215433 30 304 0.0 1.6 0.00 0.00 0.00 38 1009.1
20260509214534 30 304 0.0 3.2 0.00 0.00 0.00 32 1009.1
20260509214434 30 304 0.0 3.2 0.00 0.00 0.00 37 1009.1
20260509214233 30 304 0.0 3.2 0.00 0.00 0.00 34 1009.1
20260509213535 30 304 0.0 1.6 0.00 0.00 0.00 36 1009.2
20260509211634 30 300 0.0 3.2 0.00 0.00 0.00 30 1009.2
20260509211534 30 300 0.0 3.2 0.00 0.00 0.00 32 1009.2
20260509211434 30 300 0.0 3.2 0.00 0.00 0.00 32 1009.2
20260509211334 30 298 0.0 3.2 0.00 0.00 0.00 36 1009.2
20260509211233 30 298 0.0 3.2 0.00 0.00 0.00 34 1009.2
20260509211134 30 298 0.0 3.2 0.00 0.00 0.00 28 1009.3
20260509211034 30 300 0.0 3.2 0.00 0.00 0.00 31 1009.3
20260509210933 30 306 0.0 3.2 0.00 0.00 0.00 31 1009.3
20260509210834 30 308 0.0 3.2 0.00 0.00 0.00 34 1009.3
20260509210734 30 308 0.0 3.2 0.00 0.00 0.00 34 1009.3
20260509210634 30 308 0.0 3.2 0.00 0.00 0.00 33 1009.3
20260509210534 30 308 0.0 3.2 0.00 0.00 0.00 33 1009.3
20260509210434 30 308 0.0 3.2 0.00 0.00 0.00 34 1009.3
20260509210334 30 317 0.0 1.6 0.00 0.00 0.00 29 1009.3
20260509210233 30 318 0.0 1.6 0.00 0.00 0.00 30 1009.3
20260509210134 30 318 0.0 3.2 0.00 0.00 0.00 28 1009.3
20260509210034 30 319 0.0 3.2 0.00 0.00 0.00 34 1009.3
20260509205934 30 299 0.0 3.2 0.00 0.00 0.00 33 1009.3
20260509205834 30 297 0.0 3.2 0.00 0.00 0.00 33 1009.3
20260509205734 30 297 0.0 3.2 0.00 0.00 0.00 32 1009.3
20260509205633 30 297 0.0 3.2 0.00 0.00 0.00 35 1009.3
20260509205534 30 291 0.0 3.2 0.00 0.00 0.00 30 1009.3
20260509205434 30 290 0.0 3.2 0.00 0.00 0.00 33 1009.3
20260509205333 30 287 0.0 3.2 0.00 0.00 0.00 28 1009.3
20260509205234 30 285 0.0 3.2 0.00 0.00 0.00 32 1009.3
20260509205134 30 277 0.0 3.2 0.00 0.00 0.00 27 1009.3
20260509205034 30 267 0.0 3.2 0.00 0.00 0.00 28 1009.3
20260509204934 30 267 0.0 3.2 0.00 0.00 0.00 30 1009.3
20260509204834 30 267 0.0 3.2 0.00 0.00 0.00 36 1009.3
20260509204734 30 267 0.0 3.2 0.00 0.00 0.00 30 1009.3
20260509204633 30 267 0.0 3.2 0.00 0.00 0.00 31 1009.3
20260509204534 30 269 0.0 1.6 0.00 0.00 0.00 36 1009.3
20260509204433 30 269 0.0 1.6 0.00 0.00 0.00 31 1009.3
20260509204333 30 272 0.0 1.6 0.00 0.00 0.00 32 1009.4
20260509204234 30 272 0.0 1.6 0.00 0.00 0.00 35 1009.3
20260509204134 30 272 0.0 1.6 0.00 0.00 0.00 32 1009.3
20260509204034 30 287 0.0 1.6 0.00 0.00 0.00 35 1009.4
20260509203934 30 297 0.0 4.8 0.00 0.00 0.00 33 1009.4
20260509203834 30 299 0.0 6.4 0.00 0.00 0.00 31 1009.4
20260509200034 30 192 0.0 3.2 0.00 0.00 0.00 35 1009.6
20260509195833 30 205 0.0 3.2 0.00 0.00 0.00 43 1009.6
20260509195734 30 205 0.0 3.2 0.00 0.00 0.00 38 1009.6
20260509195634 30 205 0.0 3.2 0.00 0.00 0.00 38 1009.6
20260509195534 30 205 0.0 3.2 0.00 0.00 0.00 38 1009.6
20260509195434 30 209 0.0 3.2 0.00 0.00 0.00 37 1009.6
20260509195334 30 209 0.0 3.2 0.00 0.00 0.00 37 1009.6
20260509195234 29 210 0.0 3.2 0.00 0.00 0.00 37 1009.6
20260509195133 29 211 0.0 3.2 0.00 0.00 0.00 36 1009.6
20260509195034 29 213 0.0 4.8 0.00 0.00 0.00 36 1009.6
20260509194933 29 215 0.0 4.8 0.00 0.00 0.00 46 1009.6
20260509194833 29 249 0.0 4.8 0.00 0.00 0.00 44 1009.6
20260509194734 29 249 0.0 4.8 0.00 0.00 0.00 38 1009.6
20260509194634 29 252 0.0 4.8 0.00 0.00 0.00 42 1009.6
20260509194534 29 257 0.0 4.8 0.00 0.00 0.00 43 1009.6
20260509194434 29 257 0.0 4.8 0.00 0.00 0.00 42 1009.6
20260509194334 29 267 0.0 4.8 0.00 0.00 0.00 47 1009.6
20260509194234 29 270 0.0 4.8 0.00 0.00 0.00 42 1009.7
20260509194133 29 279 0.0 4.8 0.00 0.00 0.00 39 1009.6
20260509194034 29 313 0.0 3.2 0.00 0.00 0.00 41 1009.7
20260509193933 28 308 0.0 3.2 0.00 0.00 0.00 37 1009.7
20260509193834 28 301 0.0 3.2 0.00 0.00 0.00 42 1009.7
20260509193734 28 301 0.0 3.2 0.00 0.00 0.00 41 1009.7
20260509193634 28 301 0.0 3.2 0.00 0.00 0.00 38 1009.7
20260509193534 28 300 0.0 3.2 0.00 0.00 0.00 38 1009.7
20260509193434 28 301 0.0 3.2 0.00 0.00 0.00 37 1009.7
20260509193334 28 302 0.0 3.2 0.00 0.00 0.00 40 1009.7
20260509193233 28 305 0.0 3.2 0.00 0.00 0.00 45 1009.8
20260509193134 28 307 0.0 3.2 0.00 0.00 0.00 41 1009.8
20260509193034 28 316 0.0 6.4 0.00 0.00 0.00 42 1009.8
20260509192933 28 319 0.0 6.4 0.00 0.00 0.00 45 1009.8
20260509192834 28 319 0.0 6.4 0.00 0.00 0.00 46 1009.8
20260509192734 28 319 0.0 6.4 0.00 0.00 0.00 44 1009.9
20260509192633 28 318 0.0 6.4 0.00 0.00 0.00 40 1009.9
20260509192534 28 320 0.0 6.4 0.00 0.00 0.00 41 1009.9
20260509192434 28 320 0.0 6.4 0.00 0.00 0.00 45 1009.9
20260509192333 28 298 0.0 6.4 0.00 0.00 0.00 45 1009.9
20260509192233 28 281 0.0 6.4 0.00 0.00 0.00 41 1009.9
20260509192134 28 266 0.0 6.4 0.00 0.00 0.00 39 1009.9
20260509191234 28 140 0.0 3.2 0.00 0.00 0.00 46 1009.9
20260509191133 28 140 0.0 3.2 0.00 0.00 0.00 42 1009.9
20260509184633 28 273 0.0 3.2 0.00 0.00 0.00 44 1010.3
20260509184534 28 273 0.0 3.2 0.00 0.00 0.00 47 1010.2
20260509184433 27 274 0.0 3.2 0.00 0.00 0.00 45 1010.3
20260509184234 27 282 0.0 3.2 0.00 0.00 0.00 42 1010.3
20260509184034 27 294 0.0 3.2 0.00 0.00 0.00 42 1010.3
20260509183934 27 300 0.0 3.2 0.00 0.00 0.00 43 1010.3
20260509183833 27 323 0.0 3.2 0.00 0.00 0.00 42 1010.4
20260509183733 27 343 0.0 3.2 0.00 0.00 0.00 45 1010.4
20260509183634 27 13 0.0 3.2 0.00 0.00 0.00 44 1010.3
20260509183534 27 26 0.0 3.2 0.00 0.00 0.00 47 1010.4
20260509183434 27 39 0.0 3.2 0.00 0.00 0.00 47 1010.3
20260509183334 27 45 0.0 3.2 0.00 0.00 0.00 48 1010.3
20260509183234 27 45 0.0 3.2 0.00 0.00 0.00 47 1010.4
20260509183133 27 46 0.0 3.2 0.00 0.00 0.00 49 1010.3
20260509183034 27 47 0.0 3.2 0.00 0.00 0.00 50 1010.4
20260509182933 27 47 0.0 3.2 0.00 0.00 0.00 46 1010.4
20260509182833 27 50 0.0 3.2 0.00 0.00 0.00 47 1010.4
20260509182734 27 51 0.0 3.2 0.00 0.00 0.00 49 1010.4
20260509182634 27 52 0.0 3.2 0.00 0.00 0.00 45 1010.3
20260509182534 27 47 0.0 3.2 0.00 0.00 0.00 45 1010.3
20260509182434 27 45 0.0 3.2 0.00 0.00 0.00 45 1010.4
20260509182334 27 40 0.0 3.2 0.00 0.00 0.00 46 1010.3
20260509182233 27 35 0.0 3.2 0.00 0.00 0.00 46 1010.4
20260509182134 27 31 0.0 3.2 0.00 0.00 0.00 47 1010.4
20260509182034 27 30 0.0 3.2 0.00 0.00 0.00 46 1010.4
20260509181933 27 18 0.0 3.2 0.00 0.00 0.00 45 1010.4
20260509181834 27 1 0.0 3.2 0.00 0.00 0.00 45 1010.4
20260509181734 26 329 0.0 3.2 0.00 0.00 0.00 45 1010.4
20260509181633 26 320 0.0 3.2 0.00 0.00 0.00 45 1010.4
20260509181534 26 317 0.0 3.2 0.00 0.00 0.00 47 1010.4
20260509181434 26 316 0.0 3.2 0.00 0.00 0.00 46 1010.4
20260509181333 26 318 0.0 3.2 0.00 0.00 0.00 47 1010.4
20260509181233 26 319 0.0 3.2 0.00 0.00 0.00 46 1010.4
20260509181134 26 327 1.6 4.8 0.00 0.00 0.00 46 1010.4
20260509181034 26 321 1.6 4.8 0.00 0.00 0.00 45 1010.4
20260509180934 26 316 1.6 4.8 0.00 0.00 0.00 45 1010.4
20260509180834 26 316 1.6 4.8 0.00 0.00 0.00 47 1010.4
20260509180733 26 313 1.6 4.8 0.00 0.00 0.00 51 1010.4
20260509180633 26 312 1.6 4.8 0.00 0.00 0.00 51 1010.4
20260509180433 26 301 1.6 4.8 0.00 0.00 0.00 52 1010.4
20260509180333 26 294 1.6 4.8 0.00 0.00 0.00 49 1010.4
20260509180234 26 278 1.6 4.8 0.00 0.00 0.00 45 1010.4
20260509180134 26 221 0.0 4.8 0.00 0.00 0.00 45 1010.4
20260509175034 25 215 0.0 3.2 0.00 0.00 0.00 51 1010.3
20260509174834 25 215 0.0 3.2 0.00 0.00 0.00 48 1010.4
20260509173534 25 177 1.6 6.4 0.00 0.00 0.00 49 1010.4
20260509173334 25 173 1.6 6.4 0.00 0.00 0.00 52 1010.4
20260509172133 25 119 0.0 4.8 0.00 0.00 0.00 53 1010.4
20260509172034 25 152 0.0 4.8 0.00 0.00 0.00 52 1010.4
20260509171933 25 183 0.0 4.8 0.00 0.00 0.00 50 1010.4
20260509171833 25 197 0.0 4.8 0.00 0.00 0.00 50 1010.4
20260509171734 25 167 0.0 4.8 0.00 0.00 0.00 50 1010.4
20260509171634 25 151 0.0 3.2 0.00 0.00 0.00 49 1010.4
20260509171534 25 151 0.0 3.2 0.00 0.00 0.00 54 1010.4
20260509171434 25 150 0.0 3.2 0.00 0.00 0.00 52 1010.5
20260509171334 25 150 0.0 3.2 0.00 0.00 0.00 52 1010.5
20260509171233 25 150 0.0 3.2 0.00 0.00 0.00 52 1010.5
20260509171133 25 151 0.0 3.2 0.00 0.00 0.00 51 1010.4
20260509171034 25 147 0.0 3.2 0.00 0.00 0.00 51 1010.5
20260509170933 25 147 0.0 3.2 0.00 0.00 0.00 50 1010.5
20260509170833 25 147 0.0 3.2 0.00 0.00 0.00 51 1010.5
20260509170734 25 146 0.0 3.2 0.00 0.00 0.00 52 1010.5
20260509170634 25 138 0.0 3.2 0.00 0.00 0.00 55 1010.5
20260509170535 25 138 0.0 3.2 0.00 0.00 0.00 56 1010.5
20260509170434 25 136 0.0 3.2 0.00 0.00 0.00 56 1010.5
20260509170334 25 136 0.0 3.2 0.00 0.00 0.00 53 1010.5
20260509170233 25 125 0.0 3.2 0.00 0.00 0.00 56 1010.5
20260509170133 25 107 0.0 3.2 0.00 0.00 0.00 53 1010.5
20260509170034 25 119 0.0 3.2 0.00 0.00 0.00 54 1010.5
20260509165933 25 119 0.0 3.2 0.00 0.00 0.00 57 1010.5
20260509165834 25 119 0.0 3.2 0.00 0.00 0.00 54 1010.5
20260509165734 25 119 0.0 3.2 0.00 0.00 0.00 53 1010.5
20260509165634 25 135 0.0 1.6 0.00 0.00 0.00 53 1010.5
20260509165534 25 135 0.0 1.6 0.00 0.00 0.00 55 1010.5
20260509165434 25 135 0.0 1.6 0.00 0.00 0.00 53 1010.5
20260509165334 25 135 0.0 1.6 0.00 0.00 0.00 53 1010.5
20260509165233 25 135 0.0 1.6 0.00 0.00 0.00 53 1010.5
20260509165133 25 136 0.0 1.6 0.00 0.00 0.00 58 1010.6
20260509165034 25 139 0.0 1.6 0.00 0.00 0.00 58 1010.5
20260509164933 25 139 0.0 1.6 0.00 0.00 0.00 60 1010.5